Regional Weather Roundup
Issued by NWS

Home | Current Version | Previous Version | Text Only | Print | Product List | Glossary Off
Versions: 1 2 3 4 5 6 7 8 9 10 11 12 13 14 15 16 17 18 19 20 21 22 23 24 25 26 27 28 29 30 31 32 33 34 35 36 37 38 39 40 41 42 43 44 45 46 47 48 49 50

000
ASUS43 KMKX 260011
RWRWI

WISCONSIN REGIONAL WEATHER ROUNDUP
NATIONAL WEATHER SERVICE MILWAUKEE/SULLIVAN WI
700 PM CDT FRI JUL 25 2014

NOTE: "FAIR" INDICATES FEW OR NO CLOUDS BELOW 12,000 FEET WITH NO
SIGNIFICANT WEATHER AND/OR OBSTRUCTIONS TO VISIBILITY.

WIZ001-002-006>008-014>016-023>028-260100-
NORTHWEST WISCONSIN

CITY           SKY/WX    TMP DP  RH WIND       PRES   REMARKS
SUPERIOR ARPT  CLOUDY    64  60  88 CALM      29.78S
6HR MIN TEMP:  62; 6HR MAX TEMP:  69;

ASHLAND        CLOUDY    70  64  81 S9        29.81F
6HR MIN TEMP:  70; 6HR MAX TEMP:  75;

HAYWARD        CLOUDY    67  66  97 S7        29.83S FOG
6HR MIN TEMP:  67; 6HR MAX TEMP:  70; 6HR PCP: TRACE;

SIREN          CLOUDY    71  68  89 SE6       29.80S
6HR MIN TEMP:  71; 6HR MAX TEMP:  74;

RICE LAKE      CLOUDY    71  65  79 SE5       29.83F
6HR MIN TEMP:  67; 6HR MAX TEMP:  71;

LADYSMITH      CLOUDY    69  65  88 CALM      29.86F
6HR MIN TEMP:  68; 6HR MAX TEMP:  70;

EAU CLAIRE     CLOUDY    76  67  73 S9        29.80F
6HR MIN TEMP:  70; 6HR MAX TEMP:  76;

MENOMONIE      MOCLDY    75  67  76 SE12      29.80F
6HR MIN TEMP:  71; 6HR MAX TEMP:  76;

NEW RICHMOND   CLOUDY    74  67  78 CALM      29.80R
6HR MIN TEMP:  74; 6HR MAX TEMP:  76;

OSCEOLA        CLOUDY    75  71  87 SE3       29.81S
6HR MIN TEMP:  74; 6HR MAX TEMP:  76;

$$

WIZ003>005-009-010-017-018-260100-
NORTH CENTRAL WISCONSIN

CITY           SKY/WX    TMP DP  RH WIND       PRES   REMARKS
WOODRUFF       CLOUDY    67  63  86 SW7       29.86F
6HR MIN TEMP:  67; 6HR MAX TEMP:  77;

RHINELANDER    CLOUDY    64  62  93 S6        29.89S FOG
6HR MIN TEMP:  64; 6HR MAX TEMP:  68; 6HR PCP: TRACE;

EAGLE RIVER    CLOUDY    65  60  83 SW6       29.86F HAZE
6HR MIN TEMP:  65; 6HR MAX TEMP:  69;

LAND O LAKES   CLOUDY    66  62  85 S8        29.87S
6HR MIN TEMP:  66; 6HR MAX TEMP:  72;

PHILLIPS       CLOUDY    65  64  94 S6        29.86S
6HR MIN TEMP:  65; 6HR MAX TEMP:  69;

TOMAHAWK       CLOUDY    65  62  90 CALM      29.88F
6HR MIN TEMP:  64; 6HR MAX TEMP:  67;

MEDFORD        CLOUDY    67  63  87 S7        29.87F
6HR MIN TEMP:  64; 6HR MAX TEMP:  67;

MERRILL        CLOUDY    66  63  87 SW6       29.88S
6HR MIN TEMP:  66; 6HR MAX TEMP:  68;

$$

WIZ029-030-035-036-043>047-260100-
CENTRAL WISCONSIN

CITY           SKY/WX    TMP DP  RH WIND       PRES   REMARKS
WAUSAU         CLOUDY    67  62  84 SW7       29.87S
6HR MIN TEMP:  67; 6HR MAX TEMP:  70;

MOSINEE        CLOUDY    66  63  88 SW6       29.89S
MARSHFIELD     CLOUDY    70  63  78 S8        29.87F
6HR MIN TEMP:  65; 6HR MAX TEMP:  70;

STEVENS POINT  CLOUDY    67  60  78 SW7       29.89S
6HR MIN TEMP:  64; 6HR MAX TEMP:  68;

WAUPACA        PTSUNNY   73  61  66 SW6       29.88F
6HR MIN TEMP:  69; 6HR MAX TEMP:  76;

WAUTOMA        CLOUDY    71  62  73 SW7       29.89F
6HR MIN TEMP:  68; 6HR MAX TEMP:  73;

WISC RAPIDS    CLOUDY    70  62  76 S5        29.89S
6HR MIN TEMP:  65; 6HR MAX TEMP:  72;

CAMP DOUGLAS   CLOUDY    71  65  81 S5        29.88R
6HR MIN TEMP:  69; 6HR MAX TEMP:  73;

$$

WIZ011>013-019>022-031-037>040-048>050-260100-
NORTHEAST WISCONSIN

CITY           SKY/WX    TMP DP  RH WIND       PRES   REMARKS
ANTIGO         CLOUDY    64  61  89 SW6       29.89F
6HR MIN TEMP:  64; 6HR MAX TEMP:  66;

STURGEON BAY   CLOUDY    66  55  68 S8        29.88S
6HR MIN TEMP:  66; 6HR MAX TEMP:  75;

GREEN BAY      CLOUDY    72  61  68 SW10      29.88S
6HR MIN TEMP:  69; 6HR MAX TEMP:  73;

MANITOWOC      CLOUDY    65  58  78 S14       29.89F
6HR MIN TEMP:  65; 6HR MAX TEMP:  74;

APPLETON       PTSUNNY   70  57  64 SW9       29.89S
CLINTONVILLE   CLOUDY    70  59  68 SW6       29.87F
OSHKOSH        CLOUDY    71  61  70 SW7       29.88F
6HR MIN TEMP:  68; 6HR MAX TEMP:  74;

$$

WIZ032>034-041-042-053>061-260100-
SOUTHWEST WISCONSIN

CITY           SKY/WX    TMP DP  RH WIND       PRES   REMARKS
LA CROSSE      CLOUDY    76  64  66 S7        29.83S
6HR MIN TEMP:  70; 6HR MAX TEMP:  79;

SPARTA         CLOUDY    73  62  70 S7        29.87S
6HR MIN TEMP:  67; 6HR MAX TEMP:  75;

VIROQUA        CLOUDY    70  64  82 SE8       29.88S
6HR MIN TEMP:  66; 6HR MAX TEMP:  74;

BOSCOBEL       CLOUDY    72  62  71 VRB5      29.87S
6HR MIN TEMP:  69; 6HR MAX TEMP:  75;

PRAIRIE DU CHI CLOUDY    72  63  73 E8        29.85S
PLATTEVILLE    CLOUDY    69  64  82 SE9       29.90S
6HR MIN TEMP:  65; 6HR MAX TEMP:  71;

$$

WIZ056-057-062-063-064-067-068-260100-
SOUTH CENTRAL WISCONSIN

CITY           SKY/WX    TMP DP  RH WIND       PRES   REMARKS
BARABOO/DELLS  CLOUDY    69  59  70 S8        29.89S
6HR MIN TEMP:  66; 6HR MAX TEMP:  71;

LONE ROCK      CLOUDY    73  63  70 SE7       29.88F
6HR MIN TEMP:  70; 6HR MAX TEMP:  75;

WATERTOWN      CLOUDY    69  62  76 SW6       29.90S
6HR MIN TEMP:  65; 6HR MAX TEMP:  74;

MADISON        CLOUDY    71  61  70 SW7       29.90S
6HR MIN TEMP:  68; 6HR MAX TEMP:  73;

MIDDLETON      CLOUDY    70  60  70 S10       29.90S
6HR MIN TEMP:  69; 6HR MAX TEMP:  73;

MONROE         CLOUDY    68  61  77 SE10      29.91F
JANESVILLE     CLOUDY    72  59  64 S9        29.91S
$$

WIZ051-052-058>065-066-070>072-260100-
SOUTHEAST WISCONSIN

CITY           SKY/WX    TMP DP  RH WIND       PRES   REMARKS
MILWAUKEE      PTSUNNY   73  58  59 SW10      29.90F
6HR MIN TEMP:  70; 6HR MAX TEMP:  75; 6HR PCP: TRACE;

WAUKESHA       CLOUDY    70  59  68 SW8       29.92F
MILWAUKEE/TIMM CLOUDY    72  57  60 SW9       29.91S
RACINE         SUNNY     72  59  63 SW8       29.92F
6HR MIN TEMP:  70; 6HR MAX TEMP:  74;

BURLINGTON     CLOUDY    69  59  71 SW8       29.92S
6HR MIN TEMP:  66; 6HR MAX TEMP:  74;

KENOSHA        MOSUNNY   72  60  66 SW8       29.91F
6HR MIN TEMP:  70; 6HR MAX TEMP:  75;

FOND DU LAC    CLOUDY    71  60  68 SW10      29.89S
6HR MIN TEMP:  67; 6HR MAX TEMP:  74;

SHEBOYGAN      CLOUDY    72  60  66 SW7       29.89F
6HR MIN TEMP:  67; 6HR MAX TEMP:  74;

WEST BEND      MOSUNNY   70  57  64 SW6       29.89F
JUNEAU         CLOUDY    69  59  69 S10       29.91S
6HR MIN TEMP:  64; 6HR MAX TEMP:  73;

$$

LSZ147-162-260100-
LAKE SUPERIOR

STATION/POSITION TIME  TEMP    WIND        PRES    WAVE
                       AIR SEA DIR/SP/G            HT/PER
                 (UTC) (F)     (DEG/KT/KT) (MB)    (FT/S)
W MID LAKE BUOY  2350   56 50   90/  4/  4 1008.5F   0
PORT WING        2340   71     170/  6/  9 1008.8F
SAXON HARBOR     2300          210/  4/  8 1009.5
$$

LMZ867-665-643>646-260100-
LAKE MICHIGAN

STATION/POSITION TIME  TEMP    WIND        PRES    WAVE
                       AIR SEA DIR/SP/G            HT/PER
                 (UTC) (F)     (DEG/KT/KT) (MB)    (FT/S)
N MID LAKE BUOY  2350   59 55  200/ 14/ 16 1011.1F   3/ 5
NORTHPORT PIER   2300   64     150/  7/  9 1011.5F
KEWAUNEE LAKESHO 2300   57     180/ 16/ 18 1012.8F
SHEBOYGAN LAKESH 0000   62     180/ 12/ 13 1012.2F
PORT WASHINGTON  2340   65     190/  6/ 10 1012.9F
ATWATER BUOY     0000   62     150/  6     1013.6S
MILWAUKEE LAKESH 2300   66     140/  4/  6   N/A
S MID LAKE BUOY  2350   65 62  160/  4/  6 1013.4F   1/ 4
KENOSHA   LAKESH 0000   73     220/ 12/ 15 1012.5F
$$

TC  - TEMPERATURE IN CELSIUS
VSB - VISIBILITY IN STATUTE MILES
WCI - WIND CHILL INDEX
HX  - HEAT INDEX




USA.gov is the U.S. government's official web portal to all federal, state and local government web resources and services.